カタログに戻る

STARLINK-35791

運用中通信VLEO
NORAD 66896·PAYLOAD·🇺🇸 United States

打ち上げ Dec 4, 2025 から Vandenberg Space Force Base

Loading…

次のパス (今後24時間)

TLE

最新Source: CelesTrak SupGP

元期: Sep 14, 2026, 22:43 UTC

1 66896C 25283U   26257.94701389  .00014182  00000+0  41888-3 0  2572
2 66896  53.1569 223.3118 0001576  97.3949 321.7772 15.34392244    13

AllMySatでSTARLINK-35791をリアルタイム追跡

Download on the App Store